Darstellungsparameter: Aktuell verwendete Einstellungen:
Skalierung der Graphiken ... ?
xyx+y,   Skalierungsfaktor:      Skalierung: Modus: x, Faktor: 1
Darstellungszeitraum ... ?
Vom - - bis: - -   Zeitraum: 04.08.2019 - 05.08.2019
Min/Max/Avg-Anzeige ... ?
Zeige MMA aktuell
Zeige MMA Monat
Zeige MMA alles
Zeige --A aktuell
Zeige --A Monat
Zeige --A alles
Keine MMA-Anzeige
MMA:
Keine MMA-Graphiken
MMA-Basis: 04.08.2019 - 05.08.2019
Quicknavigation für Darstellung... ?
Tage:      1T, 2T, 3T, 5T -1T -2T -3T -5T +1T +2T +3T +5T
Wochen: 1W, 2W, 3W -1W -2W -3W +1W +2W +3W
Monate: 1M, 3M, 6M -1M -3M -6M +1M +3M +6M
Jahre:    1J, 3J, 5J, 10J -1J -3J -5J -10J +1J +3J +5J +10J
Nutze für die Darstellung ... ?
Originaldaten oder Mittelwerte auf ...
Stundenbasis Tagesbasis Wochenbasis
Monatsbasis Jahresbasis      Datenbasis: Original-Daten
Darstellen als:
Statistik (Auto) Statistik J:M      Darstellung:
Zur Graphik,    zurück zur Übersicht aller Sensoren.
 
Tabellarische Datenbersicht: ?
 
Sensor: Nr:Datum:Temp:Feuchte:Taupunkt:
Aussen-T/F 1 04-08-2019 00:00:00 16.7 C 80 % 13.23 C
2 04-08-2019 00:05:00 16.6 C 81 % 13.33 C
3 04-08-2019 00:10:00 16.5 C 81 % 13.23 C
4 04-08-2019 00:15:00 16.4 C 81 % 13.13 C
5 04-08-2019 00:20:00 16.3 C 81 % 13.04 C
6 04-08-2019 00:25:00 16.3 C 81 % 13.04 C
7 04-08-2019 00:30:00 16.2 C 82 % 13.13 C
8 04-08-2019 00:35:00 16.1 C 83 % 13.21 C
9 04-08-2019 00:40:00 16.1 C 83 % 13.21 C
10 04-08-2019 00:45:00 15.9 C 83 % 13.02 C
11 04-08-2019 00:50:00 15.8 C 83 % 12.92 C
12 04-08-2019 00:55:00 15.8 C 83 % 12.92 C
13 04-08-2019 01:00:00 15.7 C 84 % 13.01 C
14 04-08-2019 01:05:00 15.6 C 84 % 12.91 C
15 04-08-2019 01:10:00 15.6 C 84 % 12.91 C
16 04-08-2019 01:15:00 15.4 C 85 % 12.89 C
17 04-08-2019 01:20:00 15.3 C 85 % 12.79 C
18 04-08-2019 01:25:00 15.2 C 85 % 12.7 C
19 04-08-2019 01:30:00 15.1 C 86 % 12.78 C
20 04-08-2019 01:35:00 14.9 C 86 % 12.58 C
21 04-08-2019 01:40:00 14.8 C 86 % 12.48 C
22 04-08-2019 01:45:00 14.7 C 87 % 12.56 C
23 04-08-2019 01:50:00 14.6 C 87 % 12.46 C
24 04-08-2019 01:55:00 14.6 C 87 % 12.46 C
25 04-08-2019 02:00:00 14.4 C 87 % 12.27 C
Sensor: Nr:Datum:Temp:Feuchte:Taupunkt:
Aussen-T/F 26 04-08-2019 02:05:00 14.3 C 88 % 12.34 C
27 04-08-2019 02:10:00 14.3 C 88 % 12.34 C
28 04-08-2019 02:15:00 14.2 C 88 % 12.24 C
29 04-08-2019 02:20:00 14.1 C 88 % 12.14 C
30 04-08-2019 02:25:00 14 C 89 % 12.22 C
31 04-08-2019 02:30:00 13.9 C 89 % 12.12 C
32 04-08-2019 02:35:00 13.9 C 89 % 12.12 C
33 04-08-2019 02:40:00 13.8 C 90 % 12.19 C
34 04-08-2019 02:45:00 13.7 C 89 % 11.92 C
35 04-08-2019 02:50:00 13.7 C 90 % 12.09 C
36 04-08-2019 02:55:00 13.7 C 90 % 12.09 C
37 04-08-2019 03:00:00 13.6 C 90 % 11.99 C
38 04-08-2019 03:05:00 13.5 C 90 % 11.89 C
39 04-08-2019 03:10:00 13.4 C 90 % 11.79 C
40 04-08-2019 03:15:00 13.3 C 91 % 11.86 C
41 04-08-2019 03:20:00 13.3 C 91 % 11.86 C
42 04-08-2019 03:25:00 13.3 C 91 % 11.86 C
43 04-08-2019 03:30:00 13.3 C 91 % 11.86 C
44 04-08-2019 03:35:00 13.2 C 91 % 11.76 C
45 04-08-2019 03:40:00 13.2 C 91 % 11.76 C
46 04-08-2019 03:45:00 13.2 C 91 % 11.76 C
47 04-08-2019 03:50:00 13.2 C 92 % 11.93 C
48 04-08-2019 03:55:00 13.1 C 92 % 11.83 C
49 04-08-2019 04:00:00 13.1 C 92 % 11.83 C
50 04-08-2019 04:05:00 13.1 C 92 % 11.83 C
Sensor: Nr:Datum:Temp:Feuchte:Taupunkt:
Aussen-T/F 51 04-08-2019 04:10:00 12.9 C 91 % 11.47 C
52 04-08-2019 04:15:00 12.9 C 92 % 11.63 C
53 04-08-2019 04:20:00 12.9 C 92 % 11.63 C
54 04-08-2019 04:25:00 12.9 C 92 % 11.63 C
55 04-08-2019 04:30:00 12.9 C 93 % 11.8 C
56 04-08-2019 04:35:00 12.9 C 92 % 11.63 C
57 04-08-2019 04:40:00 12.8 C 92 % 11.53 C
58 04-08-2019 04:45:00 12.8 C 92 % 11.53 C
59 04-08-2019 04:50:00 12.7 C 93 % 11.6 C
60 04-08-2019 04:55:00 12.7 C 92 % 11.43 C
61 04-08-2019 05:00:00 12.7 C 93 % 11.6 C
62 04-08-2019 05:05:00 12.7 C 93 % 11.6 C
63 04-08-2019 05:10:00 12.6 C 93 % 11.5 C
64 04-08-2019 05:15:00 12.6 C 93 % 11.5 C
65 04-08-2019 05:20:00 12.6 C 93 % 11.5 C
66 04-08-2019 05:25:00 12.5 C 93 % 11.4 C
67 04-08-2019 05:30:00 12.4 C 93 % 11.3 C
68 04-08-2019 05:35:00 12.4 C 93 % 11.3 C
69 04-08-2019 05:40:00 12.4 C 93 % 11.3 C
70 04-08-2019 05:45:00 12.4 C 93 % 11.3 C
71 04-08-2019 05:50:00 12.3 C 93 % 11.2 C
72 04-08-2019 05:55:00 12.3 C 93 % 11.2 C
73 04-08-2019 06:00:00 12.3 C 93 % 11.2 C
74 04-08-2019 06:05:00 12.3 C 94 % 11.36 C
75 04-08-2019 06:10:00 12.3 C 93 % 11.2 C
Sensor: Nr:Datum:Temp:Feuchte:Taupunkt:
Aussen-T/F 76 04-08-2019 06:15:00 12.2 C 94 % 11.26 C
77 04-08-2019 06:20:00 12.3 C 94 % 11.36 C
78 04-08-2019 06:25:00 12.3 C 94 % 11.36 C
79 04-08-2019 06:30:00 12.3 C 94 % 11.36 C
80 04-08-2019 06:35:00 12.3 C 94 % 11.36 C
81 04-08-2019 06:40:00 12.4 C 94 % 11.46 C
82 04-08-2019 06:45:00 12.4 C 94 % 11.46 C
83 04-08-2019 06:50:00 12.5 C 94 % 11.56 C
84 04-08-2019 06:55:00 12.5 C 94 % 11.56 C
85 04-08-2019 07:00:00 12.5 C 94 % 11.56 C
86 04-08-2019 07:05:00 12.5 C 94 % 11.56 C
87 04-08-2019 07:10:00 12.5 C 94 % 11.56 C
88 04-08-2019 07:15:00 12.6 C 94 % 11.66 C
89 04-08-2019 07:20:00 12.6 C 94 % 11.66 C
90 04-08-2019 07:25:00 12.7 C 94 % 11.76 C
91 04-08-2019 07:30:00 12.7 C 94 % 11.76 C
92 04-08-2019 07:35:00 12.8 C 95 % 12.02 C
93 04-08-2019 07:40:00 12.8 C 95 % 12.02 C
94 04-08-2019 07:45:00 12.9 C 95 % 12.12 C
95 04-08-2019 07:50:00 13 C 95 % 12.22 C
96 04-08-2019 07:55:00 13.1 C 95 % 12.32 C
97 04-08-2019 08:00:00 13.2 C 95 % 12.42 C
98 04-08-2019 08:05:00 13.3 C 95 % 12.52 C
99 04-08-2019 08:10:00 13.4 C 95 % 12.62 C
100 04-08-2019 08:15:00 13.4 C 95 % 12.62 C
Sensor: Nr:Datum:Temp:Feuchte:Taupunkt:
Aussen-T/F 101 04-08-2019 08:20:00 13.6 C 95 % 12.81 C
102 04-08-2019 08:25:00 13.7 C 95 % 12.91 C
103 04-08-2019 08:30:00 13.8 C 95 % 13.01 C
104 04-08-2019 08:35:00 13.8 C 95 % 13.01 C
105 04-08-2019 08:40:00 14 C 95 % 13.21 C
106 04-08-2019 08:45:00 14.1 C 95 % 13.31 C
107 04-08-2019 08:50:00 14.2 C 95 % 13.41 C
108 04-08-2019 08:55:00 14.3 C 95 % 13.51 C
109 04-08-2019 09:00:00 14.5 C 95 % 13.71 C
110 04-08-2019 09:05:00 14.7 C 94 % 13.74 C
111 04-08-2019 09:10:00 14.8 C 94 % 13.84 C
112 04-08-2019 09:15:00 14.9 C 94 % 13.94 C
113 04-08-2019 09:20:00 15.1 C 94 % 14.14 C
114 04-08-2019 09:25:00 15.2 C 94 % 14.24 C
115 04-08-2019 09:30:00 15.3 C 93 % 14.18 C
116 04-08-2019 09:35:00 15.6 C 93 % 14.47 C
117 04-08-2019 09:40:00 15.7 C 92 % 14.4 C
118 04-08-2019 09:45:00 15.9 C 92 % 14.6 C
119 04-08-2019 09:50:00 16.1 C 91 % 14.63 C
120 04-08-2019 09:55:00 16.3 C 91 % 14.83 C
121 04-08-2019 10:00:00 16.6 C 90 % 14.95 C
122 04-08-2019 10:05:00 16.8 C 89 % 14.98 C
123 04-08-2019 10:10:00 17 C 89 % 15.17 C
124 04-08-2019 10:15:00 17.2 C 88 % 15.2 C
125 04-08-2019 10:20:00 17.4 C 87 % 15.21 C
Sensor: Nr:Datum:Temp:Feuchte:Taupunkt:
Aussen-T/F 126 04-08-2019 10:25:00 17.8 C 84 % 15.06 C
127 04-08-2019 10:30:00 18.2 C 82 % 15.08 C
128 04-08-2019 10:35:00 18.6 C 83 % 15.66 C
129 04-08-2019 10:40:00 18.8 C 80 % 15.28 C
130 04-08-2019 10:45:00 19.2 C 77 % 15.07 C
131 04-08-2019 10:50:00 19.7 C 76 % 15.35 C
132 04-08-2019 10:55:00 20 C 75 % 15.43 C
133 04-08-2019 11:00:00 20.3 C 73 % 15.3 C
134 04-08-2019 11:05:00 20.6 C 71 % 15.16 C
135 04-08-2019 11:10:00 20.7 C 71 % 15.25 C
136 04-08-2019 11:15:00 20.9 C 69 % 15 C
137 04-08-2019 11:20:00 21.2 C 69 % 15.29 C
138 04-08-2019 11:25:00 21.3 C 67 % 14.93 C
139 04-08-2019 11:30:00 21.4 C 66 % 14.79 C
140 04-08-2019 11:35:00 21.6 C 66 % 14.98 C
141 04-08-2019 11:40:00 21.7 C 65 % 14.84 C
142 04-08-2019 11:45:00 21.8 C 65 % 14.93 C
143 04-08-2019 11:50:00 22 C 65 % 15.12 C
144 04-08-2019 11:55:00 22.3 C 63 % 14.92 C
145 04-08-2019 12:00:00 22.4 C 63 % 15.01 C
146 04-08-2019 12:05:00 22.6 C 62 % 14.95 C
147 04-08-2019 12:10:00 22.8 C 61 % 14.89 C
148 04-08-2019 12:15:00 22.8 C 61 % 14.89 C
149 04-08-2019 12:20:00 22.9 C 61 % 14.98 C
150 04-08-2019 12:25:00 23.1 C 62 % 15.42 C
Sensor: Nr:Datum:Temp:Feuchte:Taupunkt:
Aussen-T/F 151 04-08-2019 12:30:00 23.3 C 60 % 15.1 C
152 04-08-2019 12:35:00 23.5 C 59 % 15.03 C
153 04-08-2019 12:40:00 23.7 C 58 % 14.95 C
154 04-08-2019 12:45:00 24 C 57 % 14.96 C
155 04-08-2019 12:50:00 24.2 C 55 % 14.59 C
156 04-08-2019 12:55:00 24.3 C 55 % 14.68 C
157 04-08-2019 13:00:00 24.4 C 55 % 14.78 C
158 04-08-2019 13:05:00 24.4 C 55 % 14.78 C
159 04-08-2019 13:10:00 24.4 C 56 % 15.06 C
160 04-08-2019 13:15:00 24.5 C 56 % 15.15 C
161 04-08-2019 13:20:00 24.7 C 55 % 15.05 C
162 04-08-2019 13:25:00 24.7 C 54 % 14.77 C
163 04-08-2019 13:30:00 24.8 C 53 % 14.57 C
164 04-08-2019 13:35:00 24.8 C 53 % 14.57 C
165 04-08-2019 13:40:00 25 C 52 % 14.46 C
166 04-08-2019 13:45:00 25.1 C 53 % 14.85 C
167 04-08-2019 13:50:00 25.1 C 51 % 14.25 C
168 04-08-2019 13:55:00 25.1 C 51 % 14.25 C
169 04-08-2019 14:00:00 25.1 C 52 % 14.55 C
170 04-08-2019 14:05:00 25.2 C 52 % 14.65 C
171 04-08-2019 14:10:00 25.4 C 50 % 14.22 C
172 04-08-2019 14:15:00 25.6 C 50 % 14.41 C
173 04-08-2019 14:20:00 25.6 C 50 % 14.41 C
174 04-08-2019 14:25:00 25.7 C 49 % 14.19 C
175 04-08-2019 14:30:00 25.9 C 48 % 14.05 C
Sensor: Nr:Datum:Temp:Feuchte:Taupunkt:
Aussen-T/F 176 04-08-2019 14:35:00 26.2 C 48 % 14.32 C
177 04-08-2019 14:40:00 26.3 C 46 % 13.76 C
178 04-08-2019 14:45:00 26.4 C 45 % 13.51 C
179 04-08-2019 14:50:00 26.4 C 46 % 13.85 C
180 04-08-2019 14:55:00 26.6 C 47 % 14.36 C
181 04-08-2019 15:00:00 26.8 C 46 % 14.21 C
182 04-08-2019 15:05:00 26.9 C 44 % 13.62 C
183 04-08-2019 15:10:00 27.2 C 42 % 13.18 C
184 04-08-2019 15:15:00 27.3 C 44 % 13.98 C
185 04-08-2019 15:20:00 27.6 C 43 % 13.9 C
186 04-08-2019 15:25:00 28.1 C 41 % 13.61 C
187 04-08-2019 15:30:00 28.3 C 39 % 13.02 C
188 04-08-2019 15:35:00 28.6 C 39 % 13.29 C
189 04-08-2019 15:40:00 29 C 39 % 13.65 C
190 04-08-2019 15:45:00 29.4 C 37 % 13.19 C
191 04-08-2019 15:50:00 29.7 C 37 % 13.46 C
192 04-08-2019 15:55:00 29.8 C 37 % 13.54 C
193 04-08-2019 16:00:00 29.9 C 35 % 12.78 C
194 04-08-2019 16:05:00 30.1 C 36 % 13.39 C
195 04-08-2019 16:10:00 30.2 C 35 % 13.04 C
196 04-08-2019 16:15:00 30.2 C 35 % 13.04 C
197 04-08-2019 16:20:00 30.2 C 36 % 13.48 C
198 04-08-2019 16:25:00 29.8 C 35 % 12.69 C
199 04-08-2019 16:30:00 29.7 C 37 % 13.46 C
200 04-08-2019 16:35:00 29.9 C 35 % 12.78 C
Sensor: Nr:Datum:Temp:Feuchte:Taupunkt:
Aussen-T/F 201 04-08-2019 16:40:00 30.1 C 33 % 12.06 C
202 04-08-2019 16:45:00 30.1 C 32 % 11.59 C
203 04-08-2019 16:50:00 30.1 C 32 % 11.59 C
204 04-08-2019 16:55:00 30.1 C 33 % 12.06 C
205 04-08-2019 17:00:00 30.2 C 34 % 12.6 C
206 04-08-2019 17:05:00 30.4 C 32 % 11.85 C
207 04-08-2019 17:10:00 30.7 C 33 % 12.58 C
208 04-08-2019 17:15:00 30.9 C 32 % 12.29 C
209 04-08-2019 17:20:00 31 C 32 % 12.37 C
210 04-08-2019 17:25:00 31.1 C 32 % 12.46 C
211 04-08-2019 17:30:00 31.2 C 32 % 12.55 C
212 04-08-2019 17:35:00 31.2 C 32 % 12.55 C
213 04-08-2019 17:40:00 31.3 C 31 % 12.15 C
214 04-08-2019 17:45:00 31.3 C 31 % 12.15 C
215 04-08-2019 17:50:00 31.2 C 31 % 12.06 C
216 04-08-2019 17:55:00 31 C 33 % 12.84 C
217 04-08-2019 18:00:00 30.8 C 34 % 13.13 C
218 04-08-2019 18:05:00 30.8 C 33 % 12.67 C
219 04-08-2019 18:10:00 30.7 C 34 % 13.04 C
220 04-08-2019 18:15:00 30.7 C 34 % 13.04 C
221 04-08-2019 18:20:00 30.8 C 34 % 13.13 C
222 04-08-2019 18:25:00 31.2 C 34 % 13.47 C
223 04-08-2019 18:30:00 31.2 C 35 % 13.92 C
224 04-08-2019 18:35:00 31 C 34 % 13.3 C
225 04-08-2019 18:40:00 30.7 C 34 % 13.04 C
Sensor: Nr:Datum:Temp:Feuchte:Taupunkt:
Aussen-T/F 226 04-08-2019 18:45:00 30.6 C 33 % 12.5 C
227 04-08-2019 18:50:00 30.6 C 33 % 12.5 C
228 04-08-2019 18:55:00 30.4 C 33 % 12.32 C
229 04-08-2019 19:00:00 30.2 C 34 % 12.6 C
230 04-08-2019 19:05:00 29.8 C 35 % 12.69 C
231 04-08-2019 19:10:00 29.5 C 35 % 12.43 C
232 04-08-2019 19:15:00 29.3 C 39 % 13.91 C
233 04-08-2019 19:20:00 29.2 C 38 % 13.42 C
234 04-08-2019 19:25:00 28.9 C 41 % 14.33 C
235 04-08-2019 19:30:00 28.8 C 44 % 15.33 C
236 04-08-2019 19:35:00 28.5 C 43 % 14.71 C
237 04-08-2019 19:40:00 28.2 C 49 % 16.47 C
238 04-08-2019 19:45:00 27.8 C 46 % 15.12 C
239 04-08-2019 19:50:00 27.6 C 48 % 15.6 C
240 04-08-2019 19:55:00 27.3 C 48 % 15.33 C
241 04-08-2019 20:00:00 27.1 C 48 % 15.15 C
242 04-08-2019 20:05:00 26.8 C 48 % 14.87 C
243 04-08-2019 20:10:00 26.7 C 51 % 15.72 C
244 04-08-2019 20:15:00 26.6 C 50 % 15.32 C
245 04-08-2019 20:20:00 26.3 C 51 % 15.36 C
246 04-08-2019 20:25:00 26.1 C 51 % 15.17 C
247 04-08-2019 20:30:00 25.8 C 52 % 15.2 C
248 04-08-2019 20:35:00 25.5 C 53 % 15.22 C
249 04-08-2019 20:40:00 25.1 C 53 % 14.85 C
250 04-08-2019 20:45:00 24.8 C 55 % 15.15 C
Sensor: Nr:Datum:Temp:Feuchte:Taupunkt:
Aussen-T/F 251 04-08-2019 20:50:00 24.4 C 55 % 14.78 C
252 04-08-2019 20:55:00 24.2 C 56 % 14.87 C
253 04-08-2019 21:00:00 23.8 C 56 % 14.5 C
254 04-08-2019 21:05:00 23.5 C 57 % 14.49 C
255 04-08-2019 21:10:00 23.2 C 58 % 14.48 C
256 04-08-2019 21:15:00 22.9 C 59 % 14.47 C
257 04-08-2019 21:20:00 22.6 C 60 % 14.44 C
258 04-08-2019 21:25:00 22.4 C 61 % 14.51 C
259 04-08-2019 21:30:00 22.2 C 61 % 14.32 C
260 04-08-2019 21:35:00 22.1 C 61 % 14.23 C
261 04-08-2019 21:40:00 22 C 62 % 14.39 C
262 04-08-2019 21:45:00 21.9 C 62 % 14.29 C
263 04-08-2019 21:50:00 21.8 C 63 % 14.45 C
264 04-08-2019 21:55:00 21.8 C 64 % 14.69 C
265 04-08-2019 22:00:00 21.8 C 64 % 14.69 C
266 04-08-2019 22:05:00 21.7 C 64 % 14.6 C
267 04-08-2019 22:10:00 21.8 C 64 % 14.69 C
268 04-08-2019 22:15:00 21.8 C 63 % 14.45 C
269 04-08-2019 22:20:00 21.8 C 63 % 14.45 C
270 04-08-2019 22:25:00 22 C 63 % 14.63 C
271 04-08-2019 22:30:00 22.1 C 64 % 14.97 C
272 04-08-2019 22:35:00 22.1 C 63 % 14.73 C
273 04-08-2019 22:40:00 22.1 C 64 % 14.97 C
274 04-08-2019 22:45:00 22.1 C 64 % 14.97 C
275 04-08-2019 22:50:00 22.1 C 64 % 14.97 C
Sensor: Nr:Datum:Temp:Feuchte:Taupunkt:
Aussen-T/F 276 04-08-2019 22:55:00 22.1 C 64 % 14.97 C
277 04-08-2019 23:00:00 22.1 C 64 % 14.97 C
278 04-08-2019 23:05:00 22.1 C 63 % 14.73 C
279 04-08-2019 23:10:00 22.2 C 63 % 14.82 C
280 04-08-2019 23:15:00 22.3 C 63 % 14.92 C
281 04-08-2019 23:20:00 22.3 C 62 % 14.67 C
282 04-08-2019 23:25:00 22.3 C 61 % 14.42 C
283 04-08-2019 23:30:00 22.4 C 61 % 14.51 C
284 04-08-2019 23:35:00 22.4 C 60 % 14.26 C
285 04-08-2019 23:40:00 22.5 C 60 % 14.35 C
286 04-08-2019 23:45:00 22.6 C 59 % 14.18 C
287 04-08-2019 23:50:00 22.7 C 60 % 14.54 C
288 04-08-2019 23:55:00 22.8 C 59 % 14.37 C
289 05-08-2019 00:00:00 22.8 C 59 % 14.37 C
290 05-08-2019 00:05:00 22.9 C 58 % 14.2 C
291 05-08-2019 00:10:00 22.9 C 57 % 13.93 C
292 05-08-2019 00:15:00 22.9 C 58 % 14.2 C
293 05-08-2019 00:20:00 23 C 57 % 14.03 C
294 05-08-2019 00:25:00 23 C 58 % 14.29 C
295 05-08-2019 00:30:00 22.9 C 57 % 13.93 C
296 05-08-2019 00:35:00 22.9 C 56 % 13.66 C
297 05-08-2019 00:40:00 22.9 C 57 % 13.93 C
298 05-08-2019 00:45:00 22.8 C 59 % 14.37 C
299 05-08-2019 00:50:00 22.8 C 58 % 14.11 C
300 05-08-2019 00:55:00 22.7 C 60 % 14.54 C
Sensor: Nr:Datum:Temp:Feuchte:Taupunkt:
Aussen-T/F 301 05-08-2019 01:00:00 22.6 C 60 % 14.44 C
302 05-08-2019 01:05:00 22.3 C 61 % 14.42 C
303 05-08-2019 01:10:00 22.1 C 61 % 14.23 C
304 05-08-2019 01:15:00 21.9 C 62 % 14.29 C
305 05-08-2019 01:20:00 21.8 C 62 % 14.2 C
306 05-08-2019 01:25:00 21.7 C 62 % 14.1 C
307 05-08-2019 01:30:00 21.6 C 63 % 14.26 C
308 05-08-2019 01:35:00 21.4 C 63 % 14.07 C
309 05-08-2019 01:40:00 21.3 C 63 % 13.97 C
310 05-08-2019 01:45:00 21.2 C 64 % 14.12 C
311 05-08-2019 01:50:00 21.1 C 64 % 14.03 C
312 05-08-2019 01:55:00 20.9 C 64 % 13.84 C
313 05-08-2019 02:00:00 20.8 C 64 % 13.74 C
314 05-08-2019 02:05:00 20.7 C 65 % 13.89 C
315 05-08-2019 02:10:00 20.6 C 66 % 14.03 C
316 05-08-2019 02:15:00 20.4 C 66 % 13.84 C
317 05-08-2019 02:20:00 20.3 C 67 % 13.97 C
318 05-08-2019 02:25:00 20.3 C 67 % 13.97 C
319 05-08-2019 02:30:00 20.2 C 67 % 13.88 C
320 05-08-2019 02:35:00 20.2 C 68 % 14.11 C
321 05-08-2019 02:40:00 20.1 C 68 % 14.01 C
322 05-08-2019 02:45:00 20 C 68 % 13.92 C
323 05-08-2019 02:50:00 19.9 C 68 % 13.82 C
324 05-08-2019 02:55:00 19.9 C 68 % 13.82 C
325 05-08-2019 03:00:00 19.8 C 68 % 13.73 C
Sensor: Nr:Datum:Temp:Feuchte:Taupunkt:
Aussen-T/F 326 05-08-2019 03:05:00 19.8 C 69 % 13.95 C
327 05-08-2019 03:10:00 19.8 C 69 % 13.95 C
328 05-08-2019 03:15:00 19.7 C 69 % 13.86 C
329 05-08-2019 03:20:00 19.7 C 70 % 14.08 C
330 05-08-2019 03:25:00 19.6 C 69 % 13.76 C
331 05-08-2019 03:30:00 19.6 C 70 % 13.98 C
332 05-08-2019 03:35:00 19.5 C 70 % 13.89 C
333 05-08-2019 03:40:00 19.4 C 70 % 13.79 C
334 05-08-2019 03:45:00 19.4 C 71 % 14.01 C
335 05-08-2019 03:50:00 19.4 C 70 % 13.79 C
336 05-08-2019 03:55:00 19.5 C 71 % 14.1 C
337 05-08-2019 04:00:00 19.6 C 73 % 14.63 C
338 05-08-2019 04:05:00 19.6 C 74 % 14.84 C
339 05-08-2019 04:10:00 19.6 C 76 % 15.26 C
340 05-08-2019 04:15:00 19.5 C 76 % 15.16 C
341 05-08-2019 04:20:00 19.3 C 76 % 14.97 C
342 05-08-2019 04:25:00 19.3 C 75 % 14.76 C
343 05-08-2019 04:30:00 19.2 C 77 % 15.07 C
344 05-08-2019 04:35:00 19.2 C 77 % 15.07 C
345 05-08-2019 04:40:00 19.1 C 76 % 14.77 C
346 05-08-2019 04:45:00 19.1 C 76 % 14.77 C
347 05-08-2019 04:50:00 19.1 C 76 % 14.77 C
348 05-08-2019 04:55:00 19.2 C 77 % 15.07 C
349 05-08-2019 05:00:00 19.3 C 78 % 15.37 C
350 05-08-2019 05:05:00 19.3 C 78 % 15.37 C
Sensor: Nr:Datum:Temp:Feuchte:Taupunkt:
Aussen-T/F 351 05-08-2019 05:10:00 19.3 C 77 % 15.17 C
352 05-08-2019 05:15:00 19.3 C 77 % 15.17 C
353 05-08-2019 05:20:00 19.3 C 77 % 15.17 C
354 05-08-2019 05:25:00 19.3 C 77 % 15.17 C
355 05-08-2019 05:30:00 19.2 C 76 % 14.87 C
356 05-08-2019 05:35:00 19.3 C 76 % 14.97 C
357 05-08-2019 05:40:00 19.4 C 77 % 15.27 C
358 05-08-2019 05:45:00 19.5 C 80 % 15.96 C
359 05-08-2019 05:50:00 19.4 C 81 % 16.06 C
360 05-08-2019 05:55:00 19.3 C 82 % 16.15 C
361 05-08-2019 06:00:00 19.1 C 83 % 16.15 C
362 05-08-2019 06:05:00 18.8 C 84 % 16.04 C
363 05-08-2019 06:10:00 18.6 C 85 % 16.03 C
364 05-08-2019 06:15:00 18.4 C 86 % 16.02 C
365 05-08-2019 06:20:00 18.3 C 86 % 15.92 C
366 05-08-2019 06:25:00 18.2 C 87 % 16 C
367 05-08-2019 06:30:00 18.2 C 88 % 16.18 C
368 05-08-2019 06:35:00 18.1 C 89 % 16.26 C
369 05-08-2019 06:40:00 18.1 C 89 % 16.26 C
370 05-08-2019 06:45:00 17.9 C 90 % 16.24 C
371 05-08-2019 06:50:00 17.9 C 90 % 16.24 C
372 05-08-2019 06:55:00 17.8 C 91 % 16.31 C
373 05-08-2019 07:00:00 17.8 C 91 % 16.31 C
374 05-08-2019 07:05:00 17.7 C 91 % 16.21 C
375 05-08-2019 07:10:00 17.7 C 92 % 16.38 C
Sensor: Nr:Datum:Temp:Feuchte:Taupunkt:
Aussen-T/F 376 05-08-2019 07:15:00 17.6 C 92 % 16.28 C
377 05-08-2019 07:20:00 17.6 C 92 % 16.28 C
378 05-08-2019 07:25:00 17.6 C 92 % 16.28 C
379 05-08-2019 07:30:00 17.6 C 93 % 16.45 C
380 05-08-2019 07:35:00 17.5 C 93 % 16.36 C
381 05-08-2019 07:40:00 17.4 C 93 % 16.26 C
382 05-08-2019 07:45:00 17.3 C 93 % 16.16 C
383 05-08-2019 07:50:00 17.3 C 93 % 16.16 C
384 05-08-2019 07:55:00 17.3 C 93 % 16.16 C
385 05-08-2019 08:00:00 17.3 C 94 % 16.33 C
386 05-08-2019 08:05:00 17.3 C 94 % 16.33 C
387 05-08-2019 08:10:00 17.4 C 94 % 16.42 C
388 05-08-2019 08:15:00 17.4 C 94 % 16.42 C
389 05-08-2019 08:20:00 17.6 C 94 % 16.62 C
390 05-08-2019 08:25:00 17.6 C 94 % 16.62 C
391 05-08-2019 08:30:00 17.6 C 95 % 16.79 C
392 05-08-2019 08:35:00 17.8 C 95 % 16.99 C
393 05-08-2019 08:40:00 17.8 C 95 % 16.99 C
394 05-08-2019 08:45:00 17.9 C 95 % 17.09 C
395 05-08-2019 08:50:00 17.9 C 95 % 17.09 C
396 05-08-2019 08:55:00 18.1 C 95 % 17.29 C
397 05-08-2019 09:00:00 18.1 C 95 % 17.29 C
398 05-08-2019 09:05:00 18.2 C 95 % 17.39 C
399 05-08-2019 09:10:00 18.3 C 95 % 17.48 C
400 05-08-2019 09:15:00 18.5 C 95 % 17.68 C
Sensor: Nr:Datum:Temp:Feuchte:Taupunkt:
Aussen-T/F 401 05-08-2019 09:20:00 18.7 C 96 % 18.05 C
402 05-08-2019 09:25:00 18.8 C 95 % 17.98 C
403 05-08-2019 09:30:00 18.8 C 95 % 17.98 C
404 05-08-2019 09:35:00 18.9 C 95 % 18.08 C
405 05-08-2019 09:40:00 19.1 C 95 % 18.28 C
406 05-08-2019 09:45:00 19.2 C 95 % 18.38 C
407 05-08-2019 09:50:00 19.2 C 94 % 18.21 C
408 05-08-2019 09:55:00 19.2 C 94 % 18.21 C
409 05-08-2019 10:00:00 19.4 C 94 % 18.41 C
410 05-08-2019 10:05:00 19.6 C 94 % 18.61 C
411 05-08-2019 10:10:00 19.7 C 94 % 18.71 C
412 05-08-2019 10:15:00 19.8 C 93 % 18.63 C
413 05-08-2019 10:20:00 19.9 C 94 % 18.91 C
414 05-08-2019 10:25:00 20.1 C 94 % 19.1 C
415 05-08-2019 10:30:00 20.4 C 94 % 19.4 C
416 05-08-2019 10:35:00 20.4 C 93 % 19.23 C
417 05-08-2019 10:40:00 20.3 C 91 % 18.78 C
418 05-08-2019 10:45:00 20.4 C 91 % 18.88 C
419 05-08-2019 10:50:00 20.4 C 89 % 18.53 C
420 05-08-2019 10:55:00 20.6 C 90 % 18.9 C
421 05-08-2019 11:00:00 20.8 C 89 % 18.92 C
422 05-08-2019 11:05:00 21.1 C 87 % 18.85 C
423 05-08-2019 11:10:00 21.4 C 88 % 19.33 C
424 05-08-2019 11:15:00 21.7 C 87 % 19.44 C
425 05-08-2019 11:20:00 21.8 C 85 % 19.16 C
Sensor: Nr:Datum:Temp:Feuchte:Taupunkt:
Aussen-T/F 426 05-08-2019 11:25:00 21.8 C 84 % 18.97 C
427 05-08-2019 11:30:00 22.1 C 83 % 19.08 C
428 05-08-2019 11:35:00 22.3 C 83 % 19.27 C
429 05-08-2019 11:40:00 22.4 C 80 % 18.78 C
430 05-08-2019 11:45:00 22.6 C 80 % 18.97 C
431 05-08-2019 11:50:00 22.8 C 81 % 19.37 C
432 05-08-2019 11:55:00 23.1 C 82 % 19.86 C
433 05-08-2019 12:00:00 23.3 C 79 % 19.45 C
434 05-08-2019 12:05:00 23.4 C 75 % 18.71 C
435 05-08-2019 12:10:00 23.6 C 74 % 18.69 C
436 05-08-2019 12:15:00 23.7 C 73 % 18.57 C
437 05-08-2019 12:20:00 23.9 C 69 % 17.87 C
438 05-08-2019 12:25:00 24.1 C 68 % 17.82 C
439 05-08-2019 12:30:00 24.3 C 68 % 18.01 C
440 05-08-2019 12:35:00 24.6 C 65 % 17.58 C
441 05-08-2019 12:40:00 24.8 C 63 % 17.28 C
442 05-08-2019 12:45:00 24.9 C 65 % 17.87 C
443 05-08-2019 12:50:00 25.2 C 63 % 17.65 C
444 05-08-2019 12:55:00 25.2 C 63 % 17.65 C
445 05-08-2019 13:00:00 25.2 C 64 % 17.9 C
446 05-08-2019 13:05:00 25.3 C 62 % 17.5 C
447 05-08-2019 13:10:00 25.5 C 61 % 17.43 C
448 05-08-2019 13:15:00 25.7 C 62 % 17.87 C
449 05-08-2019 13:20:00 25.8 C 61 % 17.71 C
450 05-08-2019 13:25:00 25.9 C 61 % 17.8 C
Sensor: Nr:Datum:Temp:Feuchte:Taupunkt:
Aussen-T/F 451 05-08-2019 13:30:00 26.2 C 59 % 17.55 C
452 05-08-2019 13:35:00 26.3 C 59 % 17.65 C
453 05-08-2019 13:40:00 26.4 C 56 % 16.92 C
454 05-08-2019 13:45:00 26.5 C 58 % 17.56 C
455 05-08-2019 13:50:00 26.6 C 57 % 17.38 C
456 05-08-2019 13:55:00 26.6 C 57 % 17.38 C
457 05-08-2019 14:00:00 26.6 C 58 % 17.66 C
458 05-08-2019 14:05:00 26.6 C 57 % 17.38 C
459 05-08-2019 14:10:00 26.7 C 56 % 17.19 C
460 05-08-2019 14:15:00 26.8 C 56 % 17.29 C
461 05-08-2019 14:20:00 27.1 C 55 % 17.28 C
462 05-08-2019 14:25:00 27.3 C 54 % 17.18 C
463 05-08-2019 14:30:00 27.3 C 53 % 16.88 C
464 05-08-2019 14:35:00 27.3 C 55 % 17.47 C
465 05-08-2019 14:40:00 27.3 C 53 % 16.88 C
466 05-08-2019 14:45:00 27.3 C 53 % 16.88 C
467 05-08-2019 14:50:00 27.4 C 54 % 17.27 C
468 05-08-2019 14:55:00 27.7 C 52 % 16.95 C
469 05-08-2019 15:00:00 27.8 C 47 % 15.45 C
470 05-08-2019 15:05:00 27.9 C 50 % 16.51 C
471 05-08-2019 15:10:00 28 C 50 % 16.61 C
472 05-08-2019 15:15:00 28.4 C 50 % 16.97 C
473 05-08-2019 15:20:00 28.4 C 48 % 16.33 C
474 05-08-2019 15:25:00 28.4 C 45 % 15.32 C
475 05-08-2019 15:30:00 28.5 C 46 % 15.75 C
Sensor: Nr:Datum:Temp:Feuchte:Taupunkt:
Aussen-T/F 476 05-08-2019 15:35:00 28.3 C 45 % 15.23 C
477 05-08-2019 15:40:00 28.4 C 45 % 15.32 C
478 05-08-2019 15:45:00 28.7 C 44 % 15.24 C
479 05-08-2019 15:50:00 28.8 C 44 % 15.33 C
480 05-08-2019 15:55:00 28.9 C 44 % 15.42 C
481 05-08-2019 16:00:00 28.9 C 41 % 14.33 C
482 05-08-2019 16:05:00 28.9 C 42 % 14.7 C
483 05-08-2019 16:10:00 29 C 42 % 14.79 C
484 05-08-2019 16:15:00 29.1 C 41 % 14.51 C
485 05-08-2019 16:20:00 29.1 C 41 % 14.51 C
486 05-08-2019 16:25:00 29.1 C 41 % 14.51 C
487 05-08-2019 16:30:00 29.1 C 41 % 14.51 C
488 05-08-2019 16:35:00 28.9 C 41 % 14.33 C
489 05-08-2019 16:40:00 28.8 C 41 % 14.24 C
490 05-08-2019 16:45:00 28.7 C 41 % 14.15 C
491 05-08-2019 16:50:00 28.5 C 42 % 14.34 C
492 05-08-2019 16:55:00 28.4 C 42 % 14.25 C
493 05-08-2019 17:00:00 28.3 C 42 % 14.16 C
494 05-08-2019 17:05:00 28.3 C 43 % 14.53 C
495 05-08-2019 17:10:00 28.3 C 42 % 14.16 C
496 05-08-2019 17:15:00 28.3 C 42 % 14.16 C
497 05-08-2019 17:20:00 28.3 C 42 % 14.16 C
498 05-08-2019 17:25:00 28.3 C 41 % 13.79 C
499 05-08-2019 17:30:00 28.3 C 42 % 14.16 C
500 05-08-2019 17:35:00 28.3 C 42 % 14.16 C
Sensor: Nr:Datum:Temp:Feuchte:Taupunkt:
Aussen-T/F 501 05-08-2019 17:40:00 28.2 C 42 % 14.07 C
502 05-08-2019 17:45:00 28.1 C 42 % 13.98 C
503 05-08-2019 17:50:00 28 C 43 % 14.26 C
504 05-08-2019 17:55:00 28 C 42 % 13.89 C
505 05-08-2019 18:00:00 28.1 C 43 % 14.35 C
506 05-08-2019 18:05:00 28.2 C 42 % 14.07 C
507 05-08-2019 18:10:00 28.1 C 42 % 13.98 C
508 05-08-2019 18:15:00 27.9 C 40 % 13.05 C
509 05-08-2019 18:20:00 27.8 C 42 % 13.71 C
510 05-08-2019 18:25:00 27.7 C 41 % 13.25 C
511 05-08-2019 18:30:00 27.5 C 42 % 13.44 C
512 05-08-2019 18:35:00 27.4 C 43 % 13.72 C
513 05-08-2019 18:40:00 27.5 C 43 % 13.81 C
514 05-08-2019 18:45:00 27.5 C 43 % 13.81 C
515 05-08-2019 18:50:00 27.4 C 42 % 13.35 C
516 05-08-2019 18:55:00 27.3 C 43 % 13.63 C
517 05-08-2019 19:00:00 27.2 C 44 % 13.89 C
518 05-08-2019 19:05:00 27.1 C 44 % 13.8 C
519 05-08-2019 19:10:00 27.1 C 44 % 13.8 C
520 05-08-2019 19:15:00 26.9 C 45 % 13.96 C
521 05-08-2019 19:20:00 26.8 C 45 % 13.87 C
522 05-08-2019 19:25:00 26.8 C 46 % 14.21 C
523 05-08-2019 19:30:00 26.7 C 46 % 14.12 C
524 05-08-2019 19:35:00 26.6 C 47 % 14.36 C
525 05-08-2019 19:40:00 26.4 C 48 % 14.51 C
Sensor: Nr:Datum:Temp:Feuchte:Taupunkt:
Aussen-T/F 526 05-08-2019 19:45:00 26.3 C 48 % 14.42 C
527 05-08-2019 19:50:00 26.3 C 49 % 14.74 C
528 05-08-2019 19:55:00 26.2 C 51 % 15.27 C
529 05-08-2019 20:00:00 26.1 C 47 % 13.91 C
530 05-08-2019 20:05:00 26 C 48 % 14.14 C
531 05-08-2019 20:10:00 25.9 C 45 % 13.06 C
532 05-08-2019 20:15:00 25.8 C 48 % 13.96 C
533 05-08-2019 20:20:00 25.7 C 53 % 15.4 C
534 05-08-2019 20:25:00 25.5 C 55 % 15.8 C
535 05-08-2019 20:30:00 25.2 C 57 % 16.08 C
536 05-08-2019 20:35:00 24.9 C 58 % 16.07 C
537 05-08-2019 20:40:00 24.6 C 59 % 16.06 C
538 05-08-2019 20:45:00 24.2 C 59 % 15.68 C
539 05-08-2019 20:50:00 23.8 C 57 % 14.77 C
540 05-08-2019 20:55:00 23.5 C 57 % 14.49 C
541 05-08-2019 21:00:00 23.3 C 58 % 14.58 C
542 05-08-2019 21:05:00 23 C 58 % 14.29 C
543 05-08-2019 21:10:00 22.7 C 59 % 14.28 C
544 05-08-2019 21:15:00 22.4 C 61 % 14.51 C
545 05-08-2019 21:20:00 22.2 C 62 % 14.58 C
546 05-08-2019 21:25:00 22 C 61 % 14.14 C
547 05-08-2019 21:30:00 21.8 C 62 % 14.2 C
548 05-08-2019 21:35:00 21.7 C 62 % 14.1 C
549 05-08-2019 21:40:00 21.6 C 62 % 14.01 C
550 05-08-2019 21:45:00 21.5 C 62 % 13.92 C
Sensor: Nr:Datum:Temp:Feuchte:Taupunkt:
Aussen-T/F 551 05-08-2019 21:50:00 21.4 C 63 % 14.07 C
552 05-08-2019 21:55:00 21.3 C 64 % 14.22 C
553 05-08-2019 22:00:00 21.2 C 64 % 14.12 C
554 05-08-2019 22:05:00 21.1 C 66 % 14.5 C
555 05-08-2019 22:10:00 21 C 66 % 14.41 C
556 05-08-2019 22:15:00 20.8 C 68 % 14.68 C
557 05-08-2019 22:20:00 20.7 C 69 % 14.81 C
558 05-08-2019 22:25:00 20.6 C 70 % 14.94 C
559 05-08-2019 22:30:00 20.4 C 71 % 14.97 C
560 05-08-2019 22:35:00 20.3 C 71 % 14.87 C
561 05-08-2019 22:40:00 20.2 C 71 % 14.78 C
562 05-08-2019 22:45:00 20.1 C 72 % 14.9 C
563 05-08-2019 22:50:00 20 C 71 % 14.58 C
564 05-08-2019 22:55:00 20 C 73 % 15.01 C
565 05-08-2019 23:00:00 19.9 C 73 % 14.92 C
566 05-08-2019 23:05:00 19.8 C 72 % 14.61 C
567 05-08-2019 23:10:00 19.8 C 73 % 14.82 C
568 05-08-2019 23:15:00 19.7 C 73 % 14.73 C
569 05-08-2019 23:20:00 19.6 C 74 % 14.84 C
570 05-08-2019 23:25:00 19.4 C 74 % 14.65 C
571 05-08-2019 23:30:00 19.3 C 74 % 14.55 C
572 05-08-2019 23:35:00 19.1 C 74 % 14.36 C
573 05-08-2019 23:40:00 18.9 C 75 % 14.37 C
574 05-08-2019 23:45:00 18.8 C 75 % 14.28 C
575 05-08-2019 23:50:00 18.6 C 76 % 14.29 C
Sensor: Nr:Datum:Temp:Feuchte:Taupunkt:
Aussen-T/F 576 05-08-2019 23:55:00 18.5 C 75 % 13.99 C

Legende:
   Min
   Max


Maximal/Minimal-Werte vom 04.08.2019 - 05.08.2019

Sensor Min Max Avg
Temp
(Aussen-T/F)
12.2 °C
04-08-2019  06:15:00
31.3 °C
04-08-2019  17:40:00
21.55 °C
Feuchte
(Aussen-T/F)
31 %
04-08-2019  17:40:00
96 %
05-08-2019  09:20:00
67.85 %
Taupunkt
(Aussen-T/F)
11.2 C
04-08-2019  05:50:00
19.86 C
05-08-2019  11:55:00
14.5 C

Die Daten stammen von einer Davis Vantage Pro 2 Wetter-Station und werden unter Linux mit der Software wview2wettercgi und aufbereitet. Alle Angaben erfolgen ohne Gewähr für ihre Vollständigkeit oder Richtigkeit.
Kontakt: Rainer Krienke krienke@uni-koblenz.de . Meine Webseiten an der Uni Koblenz oder privat.
Version: $Revision: 0.78 $